Location: Foligno
(42.9600°N, 12.7050°E)
Time: 06:19:59
(UTC+02:00)

ISS - Pass Details

Date: 21 July 2018
Orbit: 402 x 408 km, 51.6° (Epoch: 23 July)

Event Time Altitude Azimuth Distance (km) Brightness Sun altitude
Rises 01:22:16 0° 296° (WNW) 2,327 0.3 -26.5°
Reaches altitude 10° 01:24:50 10° 317° (NW) 1,468 -0.5 -26.5°
Maximum altitude 01:27:10 18° 2° (N) 1,089 -0.8 -26.5°
Drops below altitude 10° 01:29:30 10° 48° (NE) 1,470 -0.5 -26.4°
Sets 01:32:04 0° 68° (ENE) 2,331 0.4 -26.4°
